User: anonymous   Login
Location: Chiroubles
(46.1812°N, 4.6660°E)
Time: 18:17:12
(UTC+00:00)
Language:

Tiros 1 - Orbit

View from above orbital plane
View from above orbital plane
View from above satellite
View from above satellite

Ground track
Ground track

The orbit data is extracted from the following two-line orbital elements,

1 00029U 60002B   20338.21576974 -.00000048  00000-0  23793-4 0  9997
2 00029  48.3792 232.1600 0024350 235.4117 124.4497 14.74388581243444
Epoch (UTC): 03 December 2020 05:10:42
Eccentricity: 0.0024350
inclination: 48.3792°
perigee height: 630 km
apogee height: 664 km
right ascension of ascending node: 232.1600°
argument of perigee: 235.4117°
revolutions per day: 14.74388581
mean anomaly at epoch: 124.4497°
orbit number at epoch: 24344

The dashed part of the orbit path shows where the satellite is in the earth's shadow,  

DLR